{"data":{"norad_id":50470,"epoch":"2026-05-25T02:46:45.431904Z","epoch_age_seconds":59055,"freshness":"FRESH","line1":"1 50470U 21132B   26145.11580361  .00000034  00000+0  55291-4 0  9990","line2":"2 50470  87.9153  10.4572 0001685  90.7515 269.3810 13.17651097215048","mean_motion":13.17651097,"eccentricity":0.0001685,"inclination_deg":87.9153,"raan_deg":10.4572,"arg_perigee_deg":90.7515,"mean_anomaly_deg":269.381,"bstar":5.5291e-5,"rev_number":21504,"period_min":109.28537936018,"perigee_km":1192.4293708731,"apogee_km":1194.9810817034,"semimajor_km":7571.8422262883,"source":"CELESTRAK","updated_at":"2026-05-25T13:38:22.527863Z"}}